Location: Caltech
(34.1382°N, 118.1253°W)
Time: 11:01:50
(UTC-07:00)

Tiros 1 despin weight - All Passes

Search period start: 21 August 2014 00:00
Search period end: 31 August 2014 00:00
Orbit: 601 x 653 km, 48.2° (Epoch: 19 August)

Date Brightness Start Highest point End Pass type
(mag) Time Alt. Az. Time Alt. Az. Time Alt. Az.
21 Aug - 07:00:22 10° SSE 07:02:55 15° SE 07:05:28 10° E daylight
21 Aug - 08:39:27 10° SW 08:44:11 86° NW 08:48:57 10° NE daylight
21 Aug - 10:22:43 10° WNW 10:26:29 23° NNW 10:30:15 10° NNE daylight
21 Aug - 12:07:03 10° NNW 12:09:38 14° N 12:12:13 10° NNE daylight
21 Aug - 13:49:02 10° NNW 13:52:47 23° NNE 13:56:30 10° ENE daylight
21 Aug - 15:30:22 10° NW 15:35:04 87° NE 15:39:42 10° SE daylight
21 Aug - 17:14:00 10° W 17:16:18 14° SW 17:18:34 10° SSW daylight
22 Aug - 07:17:54 10° SSW 07:22:05 32° SE 07:26:18 10° ENE daylight
22 Aug - 08:59:14 10° WSW 09:03:45 44° NNW 09:08:19 10° NE daylight
22 Aug - 10:43:22 10° NW 10:46:29 17° NNW 10:49:35 10° NNE daylight
22 Aug - 12:26:53 10° NNW 12:29:46 16° N 12:32:37 10° NE daylight
22 Aug - 14:08:16 10° NW 14:12:37 35° NNE 14:16:54 10° E daylight
22 Aug - 15:50:01 10° WNW 15:54:27 43° SW 15:58:49 10° SSE daylight
23 Aug - 07:36:44 10° SW 07:41:24 71° SE 07:46:08 10° NE daylight
23 Aug - 09:19:30 10° W 09:23:31 27° NNW 09:27:34 10° NE daylight
23 Aug - 11:03:55 10° NW 11:06:35 15° N 11:09:13 10° NNE daylight
23 Aug - 12:46:19 10° NNW 12:49:48 20° NNE 12:53:16 10° ENE daylight
23 Aug - 14:27:35 10° NW 14:32:16 66° NE 14:36:53 10° ESE daylight
23 Aug - 16:10:20 10° W 16:13:40 20° SW 16:16:58 10° S daylight
24 Aug - 06:15:42 10° S 06:19:24 23° SE 06:23:08 10° E daylight
24 Aug - 07:56:16 10° WSW 08:00:54 57° NW 08:05:35 10° NE daylight
24 Aug - 09:40:05 10° WNW 09:43:27 19° NNW 09:46:50 10° NNE daylight
24 Aug - 11:24:00 10° NNW 11:26:42 15° N 11:29:24 10° NE daylight
24 Aug - 13:05:34 10° NW 13:09:42 29° NNE 13:13:48 10° E daylight
24 Aug - 14:47:05 10° WNW 14:51:44 60° SW 14:56:17 10° SE daylight
25 Aug - 06:34:07 10° SSW 06:38:39 51° SE 06:43:14 10° ENE daylight
25 Aug - 08:16:21 10° W 08:20:35 32° NNW 08:24:51 10° NE daylight
25 Aug - 10:00:44 10° NW 10:03:31 15° N 10:06:18 10° NNE daylight
25 Aug - 11:43:34 10° NNW 11:46:47 18° NNE 11:50:00 10° ENE daylight
25 Aug - 13:24:49 10° NW 13:29:26 50° NNE 13:33:58 10° ESE daylight
25 Aug - 15:07:03 10° WNW 15:11:00 27° SW 15:14:54 10° S daylight
26 Aug - 05:13:48 10° SSE 05:16:45 17° SE 05:19:43 10° E visible
26 Aug - 06:53:23 10° WSW 06:58:04 76° NW 07:02:49 10° NE daylight
26 Aug - 08:36:49 10° WNW 08:40:27 21° NNW 08:44:06 10° NNE daylight
26 Aug - 10:21:01 10° NNW 10:23:38 15° N 10:26:16 10° NE daylight
26 Aug - 12:02:51 10° NNW 12:06:45 25° NNE 12:10:37 10° ENE daylight
26 Aug - 13:44:13 10° NW 13:48:58 83° SW 13:53:38 10° SE daylight
26 Aug - 15:28:27 10° WSW 15:30:08 12° SW 15:31:48 10° SSW daylight
27 Aug - 05:31:39 10° SSW 05:35:55 37° SE 05:40:15 10° ENE visible
27 Aug - 07:13:15 10° W 07:17:40 40° NNW 07:22:08 10° NE daylight
27 Aug - 08:57:28 10° NW 09:00:28 16° N 09:03:27 10° NNE daylight
27 Aug - 10:40:46 10° NNW 10:43:45 16° N 10:46:44 10° NE daylight
27 Aug - 12:22:05 10° NW 12:26:33 39° NNE 12:30:58 10° E daylight
27 Aug - 14:03:57 10° WNW 14:08:19 38° SW 14:12:36 10° SSE daylight
28 Aug - 04:12:35 10° SSE 04:14:06 11° SE 04:15:38 10° ESE visible
28 Aug - 05:50:36 10° SW 05:55:15 81° SE 05:59:59 10° NE visible
28 Aug - 07:33:35 10° WNW 07:37:28 25° NNW 07:41:22 10° NNE daylight
28 Aug - 09:17:57 10° NW 09:20:34 15° N 09:23:11 10° NNE daylight
28 Aug - 11:00:08 10° NNW 11:03:46 21° NNE 11:07:23 10° ENE daylight
28 Aug - 12:41:24 10° NW 12:46:09 75° NE 12:50:50 10° ESE daylight
28 Aug - 14:24:27 10° W 14:27:29 17° SW 14:30:30 10° S daylight
29 Aug - 04:29:21 10° S 04:33:13 27° SE 04:37:08 10° ENE visible
29 Aug - 06:10:15 10° WSW 06:14:47 51° NNW 06:19:24 10° NE daylight
29 Aug - 07:54:11 10° WNW 07:57:25 18° NNW 08:00:39 10° NNE daylight
29 Aug - 09:37:54 10° NNW 09:40:41 15° N 09:43:28 10° NE daylight
29 Aug - 11:19:22 10° NW 11:23:37 32° NNE 11:27:51 10° E daylight
29 Aug - 13:00:58 10° WNW 13:05:34 52° SW 13:10:07 10° SSE daylight
30 Aug - 04:47:56 10° SW 04:52:29 59° SE 04:57:07 10° ENE visible
30 Aug - 06:30:24 10° W 06:34:30 29° NNW 06:38:39 10° NE daylight
30 Aug - 08:14:47 10° NW 08:17:29 15° N 08:20:12 10° NNE daylight
30 Aug - 09:57:23 10° NNW 10:00:44 19° NNE 10:04:05 10° ENE daylight
30 Aug - 11:38:38 10° NW 11:43:18 56° NE 11:47:56 10° ESE daylight
30 Aug - 13:21:03 10° WNW 13:24:49 24° SW 13:28:33 10° S daylight
